User: anonymous   Login
Location: Ellerstadt
(49.4644°N, 8.2615°E)
Time: 20:37:24
(UTC+00:00)
Language:

Meteor 1-20 Rocket - Orbit

View from above orbital plane
View from above orbital plane
View from above satellite
View from above satellite

Ground track
Ground track

The orbit data is extracted from the following two-line orbital elements,

1 07575U 74099B   21136.70702190 -.00000015  00000-0 -15386-4 0  9997
2 07575  81.2466 359.9990 0049927 176.3689 183.7855 14.11088270387982
Epoch (UTC): 16 May 2021 16:58:06
Eccentricity: 0.0049927
inclination: 81.2466°
perigee height: 819 km
apogee height: 892 km
right ascension of ascending node: 359.9990°
argument of perigee: 176.3689°
revolutions per day: 14.11088270
mean anomaly at epoch: 183.7855°
orbit number at epoch: 38798

The dashed part of the orbit path shows where the satellite is in the earth's shadow,  

DLR